Location: Geyikbay?r?
(36.8756°N, 30.4583°E)
Time: 14:34:58
(UTC+00:00)

USA 215 - Pass Details

Date: 05 August 2024
Orbit: 1102 x 1105 km, 123.0° (Epoch: 04 September)

Event Time Altitude Azimuth Distance (km) Brightness Sun altitude
Exits shadow 20:43:45 33° 61° (ENE) 1,774 4.3 -33.2°
Maximum altitude 20:45:18 37° 33° (NNE) 1,650 4.3 -33.3°
Drops below altitude 10° 20:51:10 10° 329° (NNW) 2,964 6.3 -33.8°
Sets 20:53:50 0° 321° (NW) 3,924 7.1 -34.0°
